| time (UTC) | temp F | wind direction | speed MPH | gust MPH | rain 1hr in | rain 24hr in | rain mn in | humidity % | barometer mb |
| 20260509113042 | 50 | 0 | 0.0 | 0.0 | 0.00 | 0.00 | 0.00 | 95 | 1013.1 |
| 20260509111540 | 49 | 0 | 0.0 | 3.0 | 0.00 | 0.00 | 0.00 | 95 | 1012.7 |
| 20260509110046 | 49 | 0 | 0.0 | 0.0 | 0.00 | 0.00 | 0.00 | 94 | 1012.8 |
| 20260509104544 | 49 | 0 | 0.0 | 0.0 | 0.00 | 0.00 | 0.00 | 94 | 1013.0 |
| 20260509103049 | 49 | 0 | 0.0 | 0.0 | 0.00 | 0.00 | 0.00 | 94 | 1012.7 |
| 20260509101541 | 49 | 0 | 0.0 | 0.0 | 0.00 | 0.00 | 0.00 | 94 | 1012.8 |
| 20260509100046 | 49 | 0 | 0.0 | 0.0 | 0.00 | 0.00 | 0.00 | 93 | 1012.6 |
| 20260509094547 | 49 | 0 | 0.0 | 0.0 | 0.00 | 0.00 | 0.00 | 92 | 1012.4 |
| 20260509093046 | 49 | 0 | 0.0 | 2.0 | 0.00 | 0.00 | 0.00 | 92 | 1012.3 |
| 20260509091543 | 50 | 0 | 0.0 | 2.0 | 0.00 | 0.00 | 0.00 | 91 | 1012.5 |
| 20260509090052 | 50 | 0 | 0.0 | 0.0 | 0.00 | 0.00 | 0.00 | 91 | 1012.3 |
| 20260509084541 | 51 | 0 | 0.0 | 0.0 | 0.00 | 0.00 | 0.00 | 90 | 1012.5 |
| 20260509083044 | 51 | 0 | 0.0 | 2.0 | 0.00 | 0.00 | 0.00 | 90 | 1012.5 |
| 20260509081543 | 51 | 0 | 0.0 | 0.0 | 0.00 | 0.00 | 0.00 | 89 | 1012.5 |
| 20260509080046 | 51 | 0 | 0.0 | 0.0 | 0.00 | 0.00 | 0.00 | 89 | 1012.5 |
| 20260509074545 | 52 | 0 | 0.0 | 0.0 | 0.00 | 0.00 | 0.00 | 89 | 1012.5 |
| 20260509073041 | 52 | 0 | 0.0 | 0.0 | 0.00 | 0.00 | 0.00 | 88 | 1012.7 |
| 20260509071535 | 52 | 0 | 0.0 | 0.0 | 0.00 | 0.00 | 0.00 | 87 | 1012.8 |
| 20260509070048 | 53 | 0 | 0.0 | 0.0 | 0.00 | 0.00 | 0.00 | 85 | 1013.2 |
| 20260509064543 | 53 | 0 | 0.0 | 0.0 | 0.00 | 0.00 | 0.00 | 85 | 1013.3 |
| 20260509063044 | 54 | 0 | 0.0 | 3.0 | 0.00 | 0.00 | 0.00 | 84 | 1013.5 |
| 20260509061538 | 54 | 0 | 0.0 | 3.0 | 0.00 | 0.00 | 0.00 | 84 | 1013.7 |
| 20260509060038 | 55 | 0 | 0.0 | 3.0 | 0.00 | 0.00 | 0.00 | 83 | 1013.9 |
| 20260509054604 | 55 | 0 | 0.0 | 3.0 | 0.00 | 0.00 | 0.00 | 82 | 1014.2 |
| 20260509053049 | 55 | 0 | 0.0 | 0.0 | 0.00 | 0.00 | 0.00 | 82 | 1014.3 |
| 20260509051544 | 55 | 0 | 0.0 | 2.0 | 0.00 | 0.00 | 0.00 | 81 | 1014.3 |
| 20260509050050 | 56 | 187 | 1.0 | 3.0 | 0.00 | 0.00 | 0.00 | 81 | 1014.4 |
| 20260509044543 | 55 | 0 | 0.0 | 0.0 | 0.00 | 0.00 | 0.00 | 81 | 1014.7 |
| 20260509043054 | 56 | 0 | 0.0 | 0.0 | 0.00 | 0.00 | 0.00 | 81 | 1014.8 |
| 20260509041545 | 56 | 0 | 0.0 | 0.0 | 0.00 | 0.00 | 0.00 | 80 | 1014.7 |
| 20260509040046 | 56 | 0 | 0.0 | 0.0 | 0.00 | 0.00 | 0.00 | 79 | 1014.6 |
| 20260509034550 | 57 | 0 | 0.0 | 1.0 | 0.00 | 0.00 | 0.00 | 78 | 1014.8 |
| 20260509033045 | 57 | 0 | 0.0 | 1.0 | 0.00 | 0.00 | 0.00 | 77 | 1014.8 |
| 20260509031612 | 58 | 0 | 0.0 | 4.0 | 0.00 | 0.00 | 0.00 | 76 | 1014.8 |
| 20260509030045 | 58 | 181 | 0.0 | 3.0 | 0.00 | 0.00 | 0.00 | 75 | 1014.9 |
| 20260509024541 | 58 | 181 | 1.0 | 5.0 | 0.00 | 0.00 | 0.00 | 75 | 1014.8 |
| 20260509023038 | 58 | 173 | 2.0 | 6.0 | 0.00 | 0.00 | 0.00 | 75 | 1015.0 |
| 20260509021544 | 58 | 170 | 1.0 | 5.0 | 0.00 | 0.00 | 0.00 | 75 | 1015.0 |
| 20260509020044 | 58 | 169 | 0.0 | 4.0 | 0.00 | 0.00 | 0.00 | 75 | 1014.8 |
| 20260509014547 | 58 | 169 | 0.0 | 4.0 | 0.00 | 0.00 | 0.00 | 74 | 1014.8 |
| 20260509013046 | 59 | 0 | 0.0 | 1.0 | 0.00 | 0.00 | 0.00 | 73 | 1014.8 |
| 20260509011542 | 60 | 0 | 0.0 | 0.0 | 0.00 | 0.00 | 0.00 | 71 | 1014.7 |
| 20260509010038 | 61 | 0 | 0.0 | 0.0 | 0.00 | 0.00 | 0.00 | 70 | 1014.7 |
| 20260509004551 | 62 | 0 | 0.0 | 0.0 | 0.00 | 0.00 | 0.00 | 68 | 1014.6 |
| 20260509003047 | 63 | 0 | 0.0 | 0.0 | 0.00 | 0.00 | 0.00 | 65 | 1014.5 |
| 20260509001544 | 64 | 0 | 0.0 | 4.0 | 0.00 | 0.00 | 0.00 | 63 | 1014.5 |
| 20260509000058 | 64 | 0 | 0.0 | 3.0 | 0.00 | 0.00 | 0.00 | 62 | 1014.2 |
| 20260508234540 | 65 | 0 | 1.0 | 5.0 | 0.00 | 0.00 | 0.00 | 61 | 1014.3 |
| 20260508233046 | 66 | 0 | 1.0 | 6.0 | 0.00 | 0.00 | 0.00 | 59 | 1014.2 |
| 20260508231550 | 66 | 194 | 1.0 | 7.0 | 0.00 | 0.00 | 0.00 | 58 | 1014.2 |
| 20260508230043 | 67 | 180 | 2.0 | 5.0 | 0.00 | 0.00 | 0.00 | 56 | 1014.0 |
| 20260508224540 | 67 | 191 | 2.0 | 7.0 | 0.00 | 0.00 | 0.00 | 54 | 1014.3 |
| 20260508223041 | 67 | 202 | 3.0 | 11.0 | 0.00 | 0.00 | 0.00 | 55 | 1014.2 |
| 20260508221547 | 67 | 174 | 4.0 | 11.0 | 0.00 | 0.00 | 0.00 | 53 | 1014.2 |
| 20260508220047 | 68 | 188 | 4.0 | 15.0 | 0.00 | 0.00 | 0.00 | 53 | 1014.1 |
| 20260508214541 | 68 | 207 | 2.0 | 11.0 | 0.00 | 0.00 | 0.00 | 51 | 1014.2 |
| 20260508213047 | 69 | 165 | 3.0 | 9.0 | 0.00 | 0.00 | 0.00 | 51 | 1013.9 |
| 20260508211540 | 68 | 175 | 3.0 | 8.0 | 0.00 | 0.00 | 0.00 | 51 | 1014.0 |
| 20260508210042 | 69 | 173 | 4.0 | 9.0 | 0.00 | 0.00 | 0.00 | 50 | 1014.3 |
| 20260508204546 | 69 | 146 | 2.0 | 10.0 | 0.00 | 0.00 | 0.00 | 49 | 1014.3 |
| 20260508203051 | 69 | 0 | 3.0 | 8.0 | 0.00 | 0.00 | 0.00 | 48 | 1014.3 |
| 20260508201555 | 69 | 178 | 3.0 | 9.0 | 0.00 | 0.00 | 0.00 | 48 | 1014.5 |
| 20260508200055 | 70 | 163 | 3.0 | 10.0 | 0.00 | 0.00 | 0.00 | 46 | 1014.7 |
| 20260508194538 | 70 | 195 | 6.0 | 10.0 | 0.00 | 0.00 | 0.00 | 45 | 1015.0 |
| 20260508193053 | 71 | 213 | 3.0 | 8.0 | 0.00 | 0.00 | 0.00 | 43 | 1015.2 |
| 20260508191544 | 71 | 192 | 4.0 | 13.0 | 0.00 | 0.00 | 0.00 | 44 | 1015.6 |
| 20260508190050 | 70 | 169 | 5.0 | 10.0 | 0.00 | 0.00 | 0.00 | 44 | 1015.5 |
| 20260508184540 | 70 | 198 | 5.0 | 11.0 | 0.00 | 0.00 | 0.00 | 43 | 1015.9 |
| 20260508183041 | 69 | 184 | 6.0 | 11.0 | 0.00 | 0.00 | 0.00 | 44 | 1016.0 |
| 20260508181607 | 69 | 74 | 6.0 | 11.0 | 0.00 | 0.00 | 0.00 | 42 | 1016.1 |
| 20260508174545 | 69 | 242 | 1.0 | 12.0 | 0.00 | 0.00 | 0.00 | 48 | 1016.5 |
| 20260508173049 | 68 | 244 | 5.0 | 12.0 | 0.00 | 0.00 | 0.00 | 49 | 1016.7 |
| 20260508171540 | 68 | 198 | 3.0 | 10.0 | 0.00 | 0.00 | 0.00 | 46 | 1016.9 |
| 20260508170039 | 68 | 162 | 4.0 | 10.0 | 0.00 | 0.00 | 0.00 | 47 | 1017.2 |
| 20260508164545 | 67 | 132 | 5.0 | 11.0 | 0.00 | 0.00 | 0.00 | 46 | 1017.4 |
| 20260508163045 | 67 | 121 | 2.0 | 8.0 | 0.00 | 0.00 | 0.00 | 45 | 1017.5 |
| 20260508161546 | 67 | 123 | 4.0 | 10.0 | 0.00 | 0.00 | 0.00 | 46 | 1017.8 |
| 20260508160044 | 66 | 89 | 2.0 | 5.0 | 0.00 | 0.00 | 0.00 | 51 | 1018.0 |
| 20260508154553 | 66 | 134 | 4.0 | 8.0 | 0.00 | 0.00 | 0.00 | 47 | 1018.4 |
| 20260508153043 | 65 | 70 | 3.0 | 8.0 | 0.00 | 0.00 | 0.00 | 48 | 1018.3 |
| 20260508151546 | 64 | 196 | 3.0 | 8.0 | 0.00 | 0.00 | 0.00 | 50 | 1018.3 |
| 20260508150043 | 63 | 0 | 4.0 | 11.0 | 0.00 | 0.00 | 0.00 | 53 | 1018.5 |
| 20260508144539 | 62 | 190 | 1.0 | 7.0 | 0.00 | 0.00 | 0.00 | 54 | 1018.6 |
| 20260508143037 | 62 | 125 | 3.0 | 6.0 | 0.00 | 0.00 | 0.00 | 58 | 1018.7 |
| 20260508141554 | 61 | 205 | 1.0 | 6.0 | 0.00 | 0.00 | 0.00 | 57 | 1018.7 |
| 20260508140053 | 60 | 263 | 2.0 | 4.0 | 0.00 | 0.00 | 0.00 | 64 | 1018.6 |
| 20260508134543 | 58 | 0 | 0.0 | 3.0 | 0.00 | 0.00 | 0.00 | 68 | 1018.7 |
| 20260508133040 | 58 | 275 | 2.0 | 4.0 | 0.00 | 0.00 | 0.00 | 68 | 1018.8 |
| 20260508131535 | 57 | 165 | 0.0 | 4.0 | 0.00 | 0.00 | 0.00 | 70 | 1018.6 |
| 20260508130034 | 55 | 162 | 1.0 | 6.0 | 0.00 | 0.00 | 0.00 | 74 | 1018.5 |
| 20260508124543 | 53 | 0 | 0.0 | 1.0 | 0.00 | 0.01 | 0.00 | 79 | 1018.4 |
| 20260508123044 | 52 | 0 | 1.0 | 4.0 | 0.00 | 0.01 | 0.00 | 82 | 1018.4 |
| 20260508121544 | 50 | 99 | 1.0 | 3.0 | 0.00 | 0.01 | 0.00 | 88 | 1018.3 |
| 20260508120052 | 49 | 99 | 1.0 | 5.0 | 0.00 | 0.01 | 0.00 | 92 | 1018.1 |
| 20260508114545 | 47 | 0 | 0.0 | 1.0 | 0.00 | 0.10 | 0.00 | 94 | 1017.9 |
| 20260508113053 | 46 | 0 | 0.0 | 1.0 | 0.00 | 0.10 | 0.00 | 94 | 1017.6 |